Theta_e
300 300 303 304 305 306 306 305 305 304 304 303 303 302 301 301 301 301 301 301 301 301 302 302 303 306 310 309 308 307 306 311 310 311 312 313 316 316 312 310 311 312 312 313 314 313 312
300 303 304 306 306 305 305 304 302 301 301 301 300 300 300 299 299 301 302 301 301 301 301 302 303 309 309 306 307 307 308 308 309 311 313 316 315 314 311 309 311 310 311 312 312 312 312
302 304 306 306 305 304 302 301 300 300 300 301 300 299 299 298 298 299 301 300 300 301 301 302 305 307 308 306 308 309 308 312 312 314 313 314 316 314 312 310 311 310 310 308 308 309 310
304 306 305 304 302 300 300 300 298 298 297 301 300 297 298 299 299 299 300 300 301 301 304 306 308 309 308 309 310 309 308 308 314 317 316 316 316 313 311 310 309 308 308 310 309 308 308
306 305 303 301 300 299 299 298 297 297 300 299 297 297 298 299 300 300 301 302 301 303 308 310 311 310 309 311 308 307 308 308 310 314 317 319 314 313 311 310 311 308 310 307 308 308 308
306 303 299 298 298 297 297 297 296 297 298 297 296 298 300 300 300 300 301 302 302 305 305 310 304 306 306 307 308 307 306 308 310 316 319 318 314 309 307 309 313 310 308 308 307 307 307
302 299 297 297 296 296 295 296 297 298 296 296 298 299 299 299 299 299 301 302 302 304 300 301 302 303 305 304 307 305 307 308 311 313 315 311 312 315 311 311 310 310 309 310 306 307 307
299 297 297 296 295 295 296 297 297 296 296 297 299 298 298 298 299 298 298 301 301 300 302 302 305 304 304 303 306 300 304 308 310 311 309 312 313 311 309 308 308 309 310 310 309 306 306
297 297 296 296 295 295 297 297 296 296 295 297 297 297 297 298 299 299 298 298 301 302 300 300 305 300 301 301 306 300 299 304 307 308 310 312 310 308 310 309 309 308 309 309 309 307 305
296 296 296 295 295 296 296 296 296 296 296 296 297 296 297 296 298 298 300 300 304 302 299 304 303 301 300 301 304 298 298 303 307 308 308 307 308 308 308 309 308 311 309 308 308 309 311
295 295 295 295 296 296 296 295 295 296 296 296 296 296 297 295 296 297 298 301 304 303 299 302 301 299 298 298 299 298 298 299 303 302 307 306 307 304 305 305 303 310 308 309 308 308 308
295 295 295 295 296 296 295 295 296 296 296 296 296 296 296 295 295 295 295 302 304 301 297 301 299 298 297 298 297 298 298 298 300 301 304 303 302 303 303 300 301 304 306 309 310 311 312
295 295 295 295 295 295 295 296 296 296 296 296 296 296 295 295 295 295 297 305 297 298 299 300 296 296 296 296 297 297 296 297 300 298 297 298 299 301 301 299 302 301 302 310 312 312 312
294 295 295 295 295 295 295 296 296 296 296 296 296 296 295 295 295 295 298 297 297 299 299 297 296 296 297 296 296 296 296 295 299 297 298 297 298 297 296 299 299 300 300 306 307 312 311
294 295 295 295 295 295 295 295 295 295 295 295 296 296 295 295 295 295 298 296 299 298 296 296 296 296 297 296 296 295 294 295 298 298 297 299 298 296 296 296 295 298 301 300 302 305 308
294 294 294 294 294 295 295 295 295 295 295 295 295 295 295 295 295 295 294 297 297 297 296 295 296 296 296 294 295 294 295 295 296 297 298 297 296 296 296 296 298 297 297 302 304 305 304
294 294 294 294 294 295 295 295 294 294 294 294 295 295 295 295 295 294 292 294 296 296 296 295 295 296 295 295 295 294 294 295 296 296 295 296 295 295 295 295 296 299 298 298 300 299 304
294 294 294 294 295 295 294 294 294 294 294 294 295 291 295 295 293 290 292 293 295 296 295 294 294 294 294 295 293 295 295 296 295 295 295 293 291 295 294 294 297 297 292 295 297 298 298
294 294 294 295 295 294 294 294 293 294 294 294 295 295 295 294 291 292 292 293 294 295 295 295 295 295 295 295 294 293 294 296 294 294 293 293 294 295 294 293 294 290 286 285 289 294 293
294 294 295 295 294 294 293 293 293 292 293 294 294 291 294 294 293 292 293 292 294 295 294 294 294 294 295 294 292 291 293 294 295 293 294 295 294 289 293 293 294 287 283 283 285 290 285
294 295 294 294 294 293 292 292 292 292 292 293 294 291 293 290 292 291 292 292 293 295 295 295 294 295 295 293 292 292 292 293 292 293 294 294 292 293 294 285 282 282 280 279 279 281 285
295 294 294 293 293 292 292 292 292 292 291 294 293 293 294 294 292 292 290 289 293 294 295 295 294 294 295 293 293 292 292 291 291 292 292 293 292 294 285 282 279 277 278 277 275 275 278
294 293 293 292 292 291 291 292 294 294 292 293 292 293 294 292 291 289 290 293 294 294 294 294 295 294 291 291 288 289 289 289 286 285 285 291 292 294 288 284 285 278 275 276 274 273 274
293 293 292 292 291 291 292 293 293 293 293 292 291 291 293 288 289 290 289 288 290 291 292 293 292 289 289 288 289 289 286 284 282 280 279 281 281 290 286 286 282 275 274 275 273 272 272
293 292 292 292 291 290 290 291 292 293 293 292 291 291 291 286 284 285 285 284 286 285 286 290 288 285 287 288 286 283 290 291 283 281 278 276 274 282 284 277 276 277 272 272 272 272 271
292 292 292 291 288 288 288 288 291 292 292 291 290 291 291 287 280 281 284 282 279 281 281 287 284 286 286 282 285 285 288 286 283 279 279 276 275 278 279 278 278 273 271 271 272 272 271
292 292 290 288 288 288 287 287 290 292 291 290 289 291 290 281 281 281 279 279 281 280 277 281 280 284 285 278 281 281 283 278 274 272 273 273 271 272 272 271 270 270 270 272 272 270 270
292 289 288 288 288 287 287 290 292 289 289 289 289 289 289 281 279 278 278 277 278 277 276 280 278 281 280 280 280 280 278 275 273 271 269 266 266 270 270 273 274 269 270 271 269 269 269
289 288 288 288 288 288 289 291 289 289 289 289 290 288 287 283 279 278 278 277 276 275 275 278 280 280 280 276 276 275 275 273 268 268 267 268 264 264 266 268 268 269 269 269 268 268 268
Wind_Speed
16 17 19 19 19 20 23 24 25 25 25 24 23 24 25 24 24 25 26 25 25 27 28 28 27 16 9 7 14 14 17 16 13 9 19 28 26 21 9 6 5 16 8 14 31 19 14
17 18 18 18 20 21 23 24 25 26 26 26 26 26 27 29 30 28 26 24 24 23 25 26 23 10 8 5 6 11 12 11 9 15 22 28 17 27 6 5 16 4 12 20 14 13 13
17 18 18 19 20 22 23 25 26 27 26 27 29 31 33 35 36 36 34 31 26 25 23 19 12 9 11 19 10 11 12 9 9 14 21 26 29 17 8 3 16 15 13 7 6 7 10
19 18 19 21 21 21 23 25 26 26 26 28 31 34 36 36 35 35 33 27 26 23 10 8 6 4 8 7 9 15 12 8 10 12 18 12 27 16 5 7 7 4 3 12 10 15 5
17 18 19 21 22 23 25 26 24 26 27 30 33 36 35 33 32 32 29 24 17 9 7 5 3 5 8 7 18 23 16 13 10 12 14 21 7 16 9 2 7 5 14 7 6 5 5
18 19 19 20 23 25 24 23 24 26 28 31 34 35 33 31 29 30 32 21 8 7 8 5 6 6 8 16 22 27 14 11 6 7 5 8 8 3 3 6 16 8 7 3 4 6 9
19 19 20 22 23 22 21 23 24 25 28 32 32 31 32 32 22 30 33 11 7 3 13 5 9 0 15 25 13 24 21 8 6 5 5 4 6 16 15 17 20 16 15 17 4 3 6
18 21 22 22 20 21 21 21 22 26 29 31 29 31 30 30 15 31 28 17 10 10 10 4 4 7 17 18 6 32 26 8 3 4 0 6 15 8 8 10 14 18 23 32 14 9 8
19 21 22 19 18 19 19 20 23 25 29 31 30 32 32 30 16 34 25 25 11 4 3 8 1 16 19 14 4 22 27 12 3 4 7 15 11 4 8 10 14 15 16 19 17 7 8
20 20 18 17 17 16 18 20 22 25 28 30 28 31 31 33 15 33 23 25 11 2 2 6 6 8 20 12 2 15 25 6 4 3 5 8 6 10 10 10 11 15 13 17 17 9 11
17 17 16 15 14 16 18 19 22 24 27 29 27 27 27 30 24 30 30 20 4 0 4 7 6 8 20 12 10 14 20 10 5 8 2 5 7 12 12 7 14 6 10 6 5 13 12
15 15 15 14 14 16 17 19 22 24 26 27 27 23 24 27 28 32 29 11 1 2 5 6 6 9 11 9 9 10 7 14 10 4 3 7 8 1 3 10 13 11 10 13 7 4 8
13 14 13 13 14 15 17 20 22 24 26 26 27 19 20 27 31 30 26 5 4 3 7 8 7 11 9 9 6 7 9 7 4 5 5 7 6 2 3 10 4 12 10 4 6 7 8
12 11 10 11 13 16 19 21 22 24 25 25 25 21 16 22 27 24 22 4 3 3 4 4 6 8 5 12 5 9 13 7 2 3 3 4 4 6 5 3 5 13 3 5 6 4 7
10 8 9 11 14 17 19 22 24 25 27 26 26 23 11 24 25 20 7 5 1 3 4 6 11 4 4 6 4 8 6 3 3 2 2 4 4 11 15 4 2 4 2 4 5 12 5
7 7 10 12 14 17 20 22 25 27 28 28 26 19 9 23 18 14 7 1 2 2 3 2 3 3 5 6 6 7 4 4 6 4 2 3 8 6 7 4 2 3 2 3 2 4 6
6 8 10 13 16 18 20 23 25 27 28 27 21 8 12 20 12 12 3 3 4 6 9 3 3 6 4 4 5 3 6 7 5 7 6 4 3 7 5 2 4 5 3 3 5 3 2
5 8 11 14 17 19 22 24 26 27 27 27 14 3 15 17 8 3 2 5 6 4 3 4 3 4 4 4 4 4 5 3 8 2 5 3 2 5 12 11 4 6 5 5 2 5 5
6 9 12 14 17 20 22 24 24 25 26 25 12 6 9 10 3 3 5 4 3 4 4 3 3 3 3 3 4 5 5 5 18 7 3 4 3 4 8 3 3 7 6 6 6 4 4
6 9 12 15 17 19 21 23 24 24 23 19 7 3 7 10 6 3 6 4 5 6 6 4 5 5 4 4 6 8 16 7 12 23 29 9 2 4 7 12 4 5 16 15 3 2 3
7 10 13 15 17 19 20 22 23 24 22 12 7 2 4 4 4 4 2 3 5 6 4 4 3 4 4 6 13 5 5 16 9 19 5 4 4 5 9 12 21 16 14 17 15 11 3
9 12 13 15 18 19 21 22 23 25 20 9 6 5 5 5 6 3 4 3 4 6 3 10 6 8 7 8 12 20 16 16 9 5 8 5 4 2 5 16 23 18 18 11 15 12 10
9 11 14 16 17 19 21 21 21 21 23 9 11 7 5 4 2 2 4 6 11 19 9 12 13 10 6 6 22 33 27 19 8 5 6 5 5 2 4 11 4 9 15 11 11 15 5
8 11 13 15 17 19 18 17 16 16 17 15 11 7 3 2 5 6 12 16 13 14 10 12 13 10 14 33 32 4 19 21 18 10 12 6 3 3 3 1 4 4 7 9 13 11 11
8 10 13 16 18 18 18 16 12 11 12 13 12 4 2 3 10 11 18 15 12 20 9 6 14 26 22 15 5 5 2 2 5 10 14 10 2 4 3 4 3 2 7 5 6 5 9
8 11 14 16 18 18 18 16 11 10 9 8 7 5 4 6 10 11 7 14 3 6 7 6 24 15 24 4 3 4 4 5 7 13 15 12 12 4 3 4 2 2 11 9 6 1 13
9 13 15 16 16 16 15 13 12 10 7 8 4 6 6 11 11 12 6 5 9 8 4 8 22 12 19 4 4 4 4 2 4 6 9 7 6 6 5 3 2 6 15 3 3 3 12
11 13 13 14 14 14 12 12 9 7 6 6 7 4 4 11 15 17 18 15 10 8 3 13 9 9 7 7 4 3 4 3 4 3 4 2 3 3 3 3 2 14 2 2 3 7 9
11 11 11 12 12 10 11 9 9 11 12 10 13 13 14 18 13 17 17 17 15 12 9 6 4 5 6 3 3 3 4 4 2 2 4 3 3 2 4 3 1 4 7 4 6 10 10
Wind_Direction
349 349 345 345 345 351 351 346 341 336 332 328 326 323 320 316 314 312 312 315 314 307 306 309 314 303 287 267 256 266 287 266 272 246 210 201 193 200 198 209 221 243 230 222 232 229 225
347 345 343 346 352 353 348 340 337 334 336 337 334 331 331 332 329 325 321 326 319 304 299 302 304 275 256 268 276 306 305 296 267 233 218 202 211 212 247 223 207 249 230 245 247 228 228
345 343 349 352 350 345 343 336 336 337 340 342 341 338 337 338 333 329 327 331 319 310 304 298 295 268 260 271 312 323 294 280 247 240 229 222 215 194 235 302 269 254 277 273 228 209 240
342 348 351 348 345 343 340 339 343 347 346 344 343 344 344 342 337 333 337 333 323 319 327 328 310 242 255 329 1 356 355 312 259 245 238 256 231 241 239 289 328 257 217 256 216 202 219
345 348 344 344 342 342 342 347 350 348 349 351 351 348 346 345 342 341 349 337 326 340 21 18 19 311 296 355 326 332 305 328 277 264 243 236 248 232 230 232 291 234 252 229 287 195 177
346 344 343 340 342 348 350 353 353 355 359 355 352 354 356 354 352 351 359 349 355 1 20 32 45 309 1 344 341 358 353 317 289 243 215 208 220 209 172 184 231 212 257 238 222 211 187
344 341 340 341 350 357 358 357 2 4 1 356 1 6 1 357 6 4 356 350 354 295 353 349 320 197 335 349 29 16 4 326 274 226 202 210 224 227 221 231 251 274 277 275 6 265 215
342 339 342 352 359 1 360 5 10 9 4 4 6 2 5 355 354 7 5 49 12 323 319 20 33 346 355 351 328 12 13 17 354 252 67 255 254 259 242 229 242 245 257 265 272 227 241
342 342 347 356 1 5 12 14 16 14 8 6 4 1 1 2 350 358 8 11 347 277 258 295 349 26 5 340 9 5 10 344 275 269 259 259 264 304 308 272 268 263 251 272 265 249 253
345 348 352 359 6 15 17 16 15 13 9 5 2 1 2 4 3 357 3 350 334 203 354 344 353 18 358 355 20 19 14 344 314 354 349 264 43 11 340 307 289 278 244 257 260 245 253
347 351 355 1 20 20 18 15 10 8 6 2 359 359 359 360 358 358 344 339 331 129 339 360 354 357 360 36 306 359 359 345 291 286 161 244 316 340 326 359 323 276 315 249 295 253 259
348 356 6 20 25 22 17 11 6 2 0 358 355 352 353 358 354 351 346 343 95 25 267 336 2 344 352 5 330 328 318 347 302 302 354 307 280 284 106 323 314 322 306 251 231 210 226
354 1 15 25 25 18 11 7 2 360 358 356 350 344 353 357 350 344 348 342 18 108 352 351 342 336 328 340 339 8 335 356 8 1 351 315 308 196 205 328 294 348 356 264 225 216 246
357 7 19 23 19 11 5 1 359 357 354 352 351 341 337 349 351 343 344 31 62 21 355 346 327 326 9 3 346 341 333 339 322 62 295 340 325 3 333 263 268 298 239 279 322 264 250
358 10 23 18 12 5 359 356 356 355 354 352 350 340 343 355 351 346 349 50 288 351 335 313 316 332 319 8 309 351 313 287 294 77 17 302 262 313 296 289 213 335 305 328 257 249 243
15 27 18 11 6 359 355 354 353 354 354 353 351 338 355 352 351 358 60 93 297 1 331 305 299 352 322 329 339 345 302 267 335 12 271 284 297 268 296 339 139 339 297 304 227 299 324
24 20 10 3 358 355 354 352 354 353 355 357 354 342 348 354 0 38 76 292 302 315 350 320 299 299 288 303 309 280 276 301 17 340 353 289 250 294 327 291 351 356 17 2 283 273 267
23 12 3 357 353 352 352 354 355 355 358 0 350 348 340 360 45 35 28 317 307 312 352 292 272 258 240 319 297 262 255 267 360 24 331 272 246 284 274 289 153 59 8 29 10 309 305
14 4 357 351 350 352 358 358 2 1 2 358 338 306 350 16 54 11 333 319 289 317 321 315 285 262 328 298 309 277 278 290 331 353 337 301 239 280 317 38 47 66 25 345 270 255 25
4 355 350 351 355 356 360 1 359 7 4 0 345 3 15 54 81 67 352 306 304 296 288 270 280 300 320 274 235 276 287 304 322 315 303 305 308 152 268 266 332 29 27 13 356 15 64
356 354 354 353 356 0 2 360 358 4 5 9 18 65 21 333 12 343 309 324 303 317 280 303 279 240 316 298 306 260 259 312 316 302 348 11 281 260 283 85 79 62 52 42 49 6 25
2 359 356 358 359 1 359 357 357 354 10 34 40 15 338 291 309 325 349 259 286 309 262 295 246 283 314 286 290 301 318 312 299 347 339 256 275 246 89 90 84 61 37 52 37 14 43
4 2 4 2 1 356 352 1 11 12 12 49 14 340 311 314 22 9 350 328 331 328 310 299 331 327 311 322 307 288 287 284 49 12 330 303 338 266 106 163 203 33 11 62 70 37 25
4 5 359 358 352 348 352 2 1 5 4 18 4 339 346 13 14 13 10 356 347 353 315 333 15 6 308 316 310 14 84 98 81 59 35 331 360 311 104 267 47 111 36 70 87 46 30
360 358 355 349 345 341 343 351 351 354 359 358 355 46 320 101 7 356 349 355 330 351 346 323 352 329 327 317 346 7 215 227 70 54 34 24 331 48 103 57 135 127 24 344 359 46 20
354 352 345 340 340 341 343 347 3 23 7 356 29 24 20 94 2 328 336 356 343 335 329 308 336 354 2 33 18 10 15 343 337 343 17 15 22 77 43 92 127 359 333 318 301 268 9
348 342 339 343 346 347 352 6 26 24 2 353 62 38 104 100 28 41 29 330 347 327 282 310 341 344 6 9 38 29 24 347 25 15 336 351 1 46 17 95 300 338 319 14 90 282 347
341 341 346 351 351 357 9 33 41 16 12 30 66 62 111 103 69 55 47 34 8 358 344 313 348 8 350 27 29 16 41 39 78 17 360 37 6 9 337 66 4 351 336 77 294 323 334
345 351 356 356 2 16 43 55 49 64 63 47 78 94 113 92 104 59 47 32 21 351 311 309 310 356 358 31 34 49 37 24 9 359 5 19 151 224 159 233 296 58 87 40 341 315 322